Regional Weather Roundup
Issued by NWS State College, PA

Home | Current Version | Previous Version | Text Only | Print | Product List | Glossary On
Versions: 1 2 3 4 5 6 7 8 9 10 11 12 13 14 15 16 17 18 19 20 21 22 23 24 25 26 27 28 29 30 31 32 33 34 35 36 37 38 39 40 41 42 43 44 45 46 47 48 49 50
000
ASUS41 KCTP 270210
RWRCTP

REGIONAL WEATHER ROUNDUP
NATIONAL WEATHER SERVICE STATE COLLEGE PA
1000 PM EDT MON JUN 26 2017

Note: "fair" indicates few or no clouds below 12,000 feet with no
significant weather and/or obstructions to visibility.

* = STATION THAT DOES NOT REPORT PRECIPITATION /E.G. RAIN...SNOW...ETC/
    THUNDER OR FOG.

PAZ002>004-007>009-013>016-020>023-029>032-270300-
WESTERN PENNSYLVANIA

CITY           SKY/WX    TMP DP  RH WIND       PRES   REMARKS
ERIE           MOCLDY    62  47  57 S7        29.97S
MEADVILLE      CLEAR     54  49  83 S7        30.02R
FRANKLIN*      MOCLDY    52  46  82 SE5       30.03S
NEW CASTLE     FAIR      54  51  90 N7        30.03R
BEAVER COUNTY  NOT AVBL
BUTLER*        CLOUDY    59  48  67 CALM      30.03R
PITTSBURGH INT CLOUDY    64  50  60 SW6       30.02S
PITTSBURGH     PTCLDY    64  45  49 W7        30.03R
INDIANA*       MOCLDY    61  52  72 SE3       30.06R
LATROBE        MOCLDY    61  50  67 CALM      30.04F
WASHINGTON CO* PTCLDY    57  52  82 CALM      30.06R
$$

PAZ004>006-010>012-017>019-024>028-033>037-041-042-045-046-049>053-270300-
CENTRAL PENNSYLVANIA

CITY           SKY/WX    TMP DP  RH WIND       PRES   REMARKS
BRADFORD       CLEAR     51  50  96 CALM      30.02S
DUBOIS         PTCLDY    53  50  89 CALM      30.02F
CLEARFIELD     MOCLDY    57  51  80 CALM      30.03F
JOHNSTOWN      MOCLDY    60  47  61 W8        30.05S
ALTOONA        MOCLDY    62  50  64 W7        30.04R
STATE COLLEGE  NOT AVBL
WILLIAMSPORT   CLOUDY    63  52  67 W6        30.01R
SELINSGROVE    CLOUDY    64  54  69 VRB5      30.04R
FT INDIANTOWN  RAIN      62  58  89 W7        30.04R
CAPITAL CITY   CLOUDY    64  58  80 CALM      30.01R
HARRISBURG     LGT RAIN  64  61  90 N5        30.00R
YORK           CLOUDY    68  55  63 NW6       30.00R
$$

PAZ038>040-043-044-047-048-054-055-060>062-067>071-270300-
EASTERN PENNSYLVANIA

CITY           SKY/WX    TMP DP  RH WIND       PRES   REMARKS
SCRANTON       CLOUDY    67  49  52 N12G18    30.00R
MOUNT POCONO   CLEAR     61  47  59 W5        30.02R
ALLENTOWN      CLEAR     62  50  64 SW6       29.98S
QUAKERTOWN*    CLEAR     63  54  72 CALM      30.01R
READING        CLEAR     69  52  54 CALM      29.98R
LANCASTER      PTCLDY    71  50  47 S5        29.99R
COATESVILLE    CLEAR     66  50  55 CALM      30.02R
POTTSTOWN      CLEAR     64  52  64 CALM      30.01R
BLUE BELL      CLEAR     61  55  82 CALM      30.01R
DOYLESTOWN     CLEAR     67  50  54 S3        29.99S
WILLOW GROVE   NOT AVBL
NORTH PHILA    CLEAR     73  49  42 CALM      30.01R
PHILADELPHIA   CLEAR     73  52  47 S5        30.00R
$$




USA.gov is the U.S. government's official web portal to all federal, state and local government web resources and services.